Location: Street
(51.1247°N, 2.7429°W)
Time: 15:17:47
(UTC+01:00)

CAS-6 - Pass Details

Date: 30 March 2023
Orbit: 610 x 632 km, 97.9° (Epoch: 03 June)

Event Time Altitude Azimuth Distance (km) Brightness Sun altitude
Exits shadow 22:01:07 19° 54° (NE) 1,480 ? -21.2°
Drops below altitude 10° 22:03:55 10° 14° (NNE) 2,008 ? -21.5°
Sets 22:06:37 0° 357° (N) 2,925 ? -21.8°
